User: anonymous   Login
Location: Unspecified
(0.0000°N, 0.0000°E)
Time: 18:17:43
(UTC+02:00)
Language:

Helios 1A Rocket - Orbit

View from above orbital plane
View from above orbital plane
View from above satellite
View from above satellite

Ground track
Ground track

The orbit data is extracted from the following two-line orbital elements,

1 23608U 95033D   15247.21994656  .00000701  00000-0  70206-4 0  9997
2 23608  98.2371 136.5497 0016165 242.3655 117.5923 14.94835650 90307
Epoch (UTC): 04 September 2015 05:16:43
Eccentricity: 0.0016165
inclination: 98.2371°
perigee height: 571 km
apogee height: 594 km
right ascension of ascending node: 136.5497°
argument of perigee: 242.3655°
revolutions per day: 14.94835650
mean anomaly at epoch: 117.5923°
orbit number at epoch: 9030

The dashed part of the orbit path shows where the satellite is in the earth's shadow,  

DLR